Tracking 30744 objects as of 23-Jun-2025
HD Live streaming from Space Station
objects crossing your sky now

SL-14 DEB

Track SL-14 DEB now!
10-day predictions


NORAD ID: 47080
Int'l Code: 1991-056DE
Perigee: 780.3 km
Apogee: 1,033.9 km
Inclination: 82.5 °
Period: 103.0 minutes
Semi major axis: 7278 km
RCS: Unknown
Launch date: August 15, 1991
Source: Commonwealth of Independent States (former USSR) (CIS)
Launch site: PLESETSK MISSILE AND SPACE COMPLEX (PKMTR)

Note: This is SATELLITE DEBRIS
Your satellite tracking list
Your tracking list is empty




NASA's NSSDC Master Catalog

Two Line Element Set (TLE):
1 47080U 91056DE  25172.22079377  .00010558  00000-0  64970-2 0  9991
2 47080  82.5028 258.3883 0174227 126.1430 235.6004 13.98217649231335
Source of the keplerian elements: AFSPC